GPS BIIR-5 (PRN 28)

Last updated on Oct. 23, 2020, 5:57 a.m. UTC

1 26407U 00040A   20296.40837213 -.00000014  00000-0  00000-0 0  9996
2 26407  55.9020 297.1581 0186422 280.5464 259.5048  2.00564550148550
UTC
Height (km)
Latitude
Longitude
Inclination
Orbital Period
UTC large
Height (km)
Speed (km/s)
/
Latitude / Longitude
Inclination (degrees)
Orbital Period (minutes)
Azimuth
Elevation
Range (km)
Doppler Factor
iOS Compass Heading
iOS Angle

Next 30 passes for location: Hong Kong

Rise time Rise Azimuth (degrees) Set time Set Azimuth (degrees) Duration Max altitude (degrees)

No matching passes for this satellites